Zurück zum Katalog

STARLINK-32692

AktivKommunikationVLEO
NORAD 62422·PAYLOAD·🇺🇸 United States

Gestartet Dec 23, 2024 von Cape Canaveral Space Force Station

Loading…

Nächste Überflüge (nächste 24 Stunden)

TLE

AktuellSource: CelesTrak SupGP

Epoche: Sep 15, 2026, 03:26 UTC

1 62422C 24249P   26258.14354167  .00045302  00000+0  16404-2 0  2589
2 62422  43.0033 332.1022 0001718 271.1276 170.6121 15.27563959    18

Verfolge STARLINK-32692 in Echtzeit mit AllMySat

Download on the App Store